Date,TemperatureHighF,TemperatureAvgF,TemperatureLowF,DewpointHighF,DewpointAvgF,DewpointLowF,HumidityHigh,HumidityAvg,HumidityLow,PressureMaxIn,PressureMinIn,WindSpeedMaxMPH,WindSpeedAvgMPH,GustSpeedMaxMPH,PrecipitationSumIn
2013-1-1,20.8,6.0,-9.4,16.2,-0.9,-17.2,82,73,66,30.24,29.97,13,3,13,0.00
2013-1-2,22.8,20.1,17.2,18.9,15.9,13.4,85,84,82,30.04,29.90,13,4,13,0.00
2013-1-3,22.5,16.8,11.5,18.3,10.7,4.4,84,77,64,30.24,30.02,13,4,13,0.00
2013-1-4,36.7,22.8,13.3,23.5,14.8,5.6,81,72,56,30.08,29.96,17,3,17,0.00
2013-1-5,32.7,19.2,8.8,24.3,12.7,2.8,82,76,65,30.06,29.80,8,2,8,0.00
2013-1-6,30.0,19.7,13.8,18.6,12.3,6.9,82,73,59,30.17,29.94,14,3,14,0.00
2013-1-7,42.1,30.7,17.8,29.6,22.6,12.3,80,72,58,29.95,29.82,21,6,21,0.00
2013-1-8,37.2,27.9,15.3,28.8,21.7,8.8,86,78,70,29.95,29.71,18,4,18,0.00
2013-1-9,40.3,32.1,24.1,28.1,23.3,15.8,81,70,55,30.31,29.84,37,5,37,0.00
2013-1-10,42.4,34.3,26.2,32.0,25.9,20.4,90,72,53,30.26,29.68,18,4,18,0.12
2013-1-11,41.2,37.3,34.9,39.6,35.3,32.0,94,93,90,29.69,29.31,19,4,19,0.00
2013-1-12,39.0,17.5,7.2,37.0,12.0,0.9,94,79,70,30.03,29.33,25,6,25,0.00
2013-1-13,10.8,7.1,3.7,4.4,1.2,-1.7,79,77,74,30.19,30.02,12,3,12,0.00
2013-1-14,19.9,10.3,5.0,10.3,3.5,-0.1,80,74,63,30.38,30.19,10,2,10,0.00
2013-1-15,32.5,20.4,8.1,19.4,12.2,2.9,81,71,56,30.24,29.76,22,6,22,0.00
2013-1-16,36.7,27.7,14.5,31.6,19.0,1.8,85,70,56,30.22,29.60,23,5,23,0.00
2013-1-17,27.3,15.6,8.8,12.8,4.2,-2.1,70,60,53,30.38,30.21,12,2,12,0.00
2013-1-18,41.9,29.0,17.4,32.1,21.8,9.3,82,75,65,30.25,29.69,17,4,17,0.00
2013-1-19,39.4,24.7,4.8,33.1,18.2,-2.8,86,76,58,30.19,29.63,23,5,23,0.00
2013-1-20,14.2,5.0,0.3,3.5,-3.6,-8.5,72,67,59,30.36,30.19,17,4,17,0.00
2013-1-21,2.8,-4.4,-8.3,-8.0,-13.3,-17.1,66,65,60,30.32,30.23,14,5,14,0.00
2013-1-22,5.9,-1.1,-9.8,0.5,-6.8,-15.3,79,76,74,30.39,30.18,10,3,10,0.00
2013-1-23,21.9,9.2,-2.4,12.1,-0.3,-14.1,78,66,51,30.58,30.10,16,4,16,0.00
2013-1-24,13.1,2.9,-4.2,3.1,-7.6,-15.0,64,61,57,30.64,30.11,14,3,14,0.00
2013-1-25,24.6,16.2,6.4,11.4,5.6,-3.4,72,63,51,30.29,29.88,25,6,25,0.00
2013-1-26,24.6,13.1,0.0,13.8,3.3,-8.2,72,65,58,30.31,30.06,12,2,12,0.00
2013-1-27,33.6,29.2,24.1,28.9,21.6,13.2,87,73,62,30.07,29.75,9,2,9,0.00
2013-1-28,35.8,32.6,30.0,32.8,29.5,26.3,92,88,85,29.87,29.60,9,2,9,0.12
2013-1-29,37.2,33.2,28.2,35.1,30.1,22.9,92,88,81,29.71,29.49,15,3,15,0.00
2013-1-30,28.0,19.3,9.7,22.9,13.2,3.0,82,77,73,29.73,29.61,17,5,17,0.00
2013-1-31,9.7,4.7,-5.1,3.1,-2.8,-13.6,76,71,64,30.24,29.73,20,6,20,0.00
2013-2-1,6.6,-1.3,-10.3,-2.1,-9.4,-17.5,74,68,59,30.28,30.00,12,3,12,0.00
2013-2-2,16.5,8.7,3.4,6.0,1.1,-2.8,76,71,62,30.13,29.93,22,2,22,0.00
2013-2-3,17.4,12.5,5.5,8.3,5.3,-0.6,77,72,65,30.04,29.93,14,3,14,0.00
2013-2-4,18.3,11.9,5.4,9.7,3.9,-1.5,79,70,63,30.06,29.70,16,3,16,0.00
2013-2-5,37.0,24.1,7.3,26.6,16.7,-0.3,84,74,57,30.04,29.61,14,3,14,0.04
2013-2-6,25.3,16.5,5.0,20.3,10.9,-2.2,82,78,71,30.08,29.89,11,2,11,0.00
2013-2-7,28.8,26.5,24.6,24.1,21.9,20.2,86,83,78,30.21,29.96,18,5,18,0.00
2013-2-8,31.6,23.6,11.7,21.1,15.9,6.0,81,72,57,30.35,30.16,14,3,14,0.00
2013-2-9,32.5,29.5,25.0,28.5,25.1,20.0,88,83,81,30.17,29.88,21,7,21,0.00
2013-2-10,33.6,31.1,28.8,30.9,27.9,25.1,91,88,85,29.89,29.26,25,4,25,0.00
2013-2-11,31.3,26.7,17.8,28.8,21.7,11.7,90,81,74,29.99,29.31,22,5,22,0.00
2013-2-12,37.6,25.2,15.4,26.5,18.2,10.0,83,75,62,30.00,29.75,19,5,19,0.14
2013-2-13,41.4,30.3,22.8,31.4,24.2,17.5,87,78,65,29.77,29.52,13,3,13,0.05
2013-2-14,37.8,28.8,15.6,30.2,21.4,5.7,88,74,54,30.13,29.56,18,2,18,0.18
2013-2-15,29.1,15.8,7.2,14.6,5.7,-1.4,74,64,52,30.29,30.13,13,3,13,0.00
2013-2-16,27.1,12.1,3.9,14.6,2.7,-4.7,75,66,54,30.24,30.07,7,2,7,0.00
2013-2-17,32.2,22.0,4.3,22.5,14.2,-4.7,77,72,65,30.08,29.58,24,6,24,0.00
2013-2-18,33.4,24.8,11.5,28.5,18.2,4.2,82,76,69,29.78,29.46,19,5,19,0.00
2013-2-19,19.2,10.0,3.7,5.8,0.1,-6.1,75,64,53,30.33,29.78,19,5,19,0.00
2013-2-20,23.2,9.0,-3.8,9.3,-1.4,-11.9,71,63,53,30.45,30.33,10,2,10,0.00
2013-2-21,27.7,16.1,2.7,14.8,5.8,-6.4,72,64,54,30.42,30.06,14,3,14,0.00
2013-2-22,31.6,25.8,21.9,24.6,19.4,14.8,82,77,71,30.08,29.81,14,3,14,0.06
2013-2-23,38.8,27.0,20.5,29.9,20.7,14.2,82,77,68,29.92,29.80,58,2,58,0.04
2013-2-24,39.4,22.7,8.4,29.1,15.3,2.7,80,73,64,30.06,29.92,7,1,7,0.00
2013-2-25,42.4,28.2,16.2,30.0,20.0,8.7,80,72,59,30.08,29.99,14,1,14,0.00
2013-2-26,37.0,27.2,16.9,29.4,21.0,11.4,83,77,73,30.04,29.84,17,3,17,0.00
2013-2-27,43.7,33.7,29.1,30.7,25.6,22.2,82,73,58,30.00,29.84,20,5,20,0.00
2013-2-28,32.4,29.9,25.0,23.9,21.7,16.5,75,71,67,30.19,29.99,17,5,17,0.00
2013-3-1,37.0,27.2,18.9,23.8,17.6,10.1,73,67,55,30.32,30.18,21,4,21,0.00
2013-3-2,38.7,22.9,8.4,21.8,11.0,1.5,76,61,44,30.33,30.13,8,1,8,0.00
2013-3-3,36.0,27.5,19.6,15.5,12.2,8.9,65,53,40,30.13,29.93,14,3,14,0.00
2013-3-4,28.2,26.1,24.4,21.3,17.2,11.3,84,70,49,30.01,29.91,12,3,12,0.00
2013-3-5,33.3,27.7,23.5,27.7,22.7,18.0,85,81,74,30.26,29.95,14,3,14,0.10
2013-3-6,34.3,24.1,10.0,24.8,17.1,2.7,81,75,65,30.39,30.26,11,2,11,0.13
2013-3-7,34.9,20.6,5.4,21.6,11.4,-1.2,79,68,56,30.36,30.22,14,2,14,0.04
2013-3-8,40.6,30.8,18.3,29.4,23.3,9.5,82,74,63,30.29,30.03,12,3,12,0.00
2013-3-9,37.2,35.7,34.0,35.3,32.9,28.8,93,90,75,30.04,29.64,14,3,14,0.32
2013-3-10,34.9,33.3,30.0,32.7,29.8,25.0,92,87,82,29.93,29.76,21,7,21,0.02
2013-3-11,32.9,29.2,24.3,26.8,23.6,18.2,83,80,74,29.85,29.72,22,4,22,0.00
2013-3-12,34.3,27.1,22.6,24.1,18.0,12.2,79,69,53,30.16,29.80,18,4,18,0.00
2013-3-13,38.7,24.9,13.3,23.1,14.8,7.4,79,66,49,30.36,30.16,11,3,11,0.00
2013-3-14,43.9,32.8,25.0,32.4,24.6,16.2,85,72,60,30.21,29.96,9,2,9,0.00
2013-3-15,35.2,32.0,25.9,31.1,27.0,21.7,85,82,72,29.98,29.80,13,4,13,0.06
2013-3-16,33.6,24.4,14.7,25.3,17.4,6.0,84,75,60,30.21,29.88,14,4,14,0.02
2013-3-17,28.6,18.6,7.0,17.8,8.1,-0.5,72,64,54,30.26,29.83,46,4,46,0.00
2013-3-18,29.7,23.9,14.2,26.3,17.3,7.0,87,76,67,29.84,29.55,23,8,23,0.00
2013-3-19,30.7,16.7,7.5,15.0,5.8,-0.3,74,63,47,30.16,29.77,18,6,18,0.00
2013-3-20,31.3,17.0,7.5,12.8,3.8,-1.9,65,56,44,30.18,30.05,15,5,15,0.00
2013-3-21,34.7,18.1,1.8,16.6,5.4,-7.6,68,58,46,30.11,29.99,10,1,10,0.00
2013-3-22,41.9,24.2,6.1,23.4,11.1,-3.0,71,58,43,30.07,30.00,11,1,11,0.00
2013-3-23,43.5,30.0,15.3,24.7,16.8,6.2,71,59,44,30.11,30.05,7,1,7,0.00
2013-3-24,36.0,31.8,29.3,24.8,22.3,19.0,75,68,61,30.07,29.94,17,4,17,0.00
2013-3-25,45.7,33.1,22.5,26.1,20.6,14.8,73,61,45,30.18,30.01,15,3,15,0.00
2013-3-26,47.8,34.2,26.6,29.0,21.6,17.0,70,60,46,30.27,30.18,10,2,10,0.00
2013-3-27,50.7,35.4,22.8,27.1,20.0,13.8,70,55,37,30.32,30.24,14,1,14,0.00
2013-3-28,49.3,34.5,19.9,25.7,19.3,11.3,72,55,37,30.32,30.22,10,2,10,0.00
2013-3-29,53.2,40.0,28.2,36.3,29.2,18.5,77,66,51,30.26,30.03,18,3,18,0.00
2013-3-30,57.6,44.7,36.1,48.6,38.2,30.2,90,78,63,30.03,29.81,14,4,14,0.00
2013-3-31,46.9,36.8,25.7,33.5,25.5,14.4,85,66,40,30.06,29.75,17,5,17,0.00
2013-4-1,42.3,28.9,19.2,21.5,15.4,11.1,71,58,40,30.25,30.06,14,4,14,0.00
2013-4-2,46.8,31.1,20.1,22.8,16.6,11.8,74,57,37,30.33,30.21,14,2,14,0.00
2013-4-3,49.5,35.3,19.0,31.2,20.9,9.8,72,57,40,30.36,29.98,25,7,25,0.00
2013-4-4,58.3,45.7,33.4,35.3,29.4,18.8,72,54,36,30.14,29.95,24,5,24,0.00
2013-4-5,43.7,34.3,24.6,31.5,22.8,14.8,84,64,40,30.22,29.87,79,3,79,0.00
2013-4-6,51.1,41.4,36.0,38.8,33.8,29.4,85,75,57,29.87,29.49,18,4,18,0.00
2013-4-7,51.6,41.2,35.4,37.7,34.1,31.0,85,76,58,29.91,29.72,14,2,14,0.00
2013-4-8,44.8,41.2,39.4,41.9,38.1,35.1,91,88,81,30.03,29.65,13,3,13,0.00
2013-4-9,47.5,39.2,34.9,36.2,31.5,25.4,87,75,59,30.15,29.97,26,7,26,0.00
2013-4-10,41.4,36.9,33.4,28.5,26.0,23.4,76,65,55,30.18,29.88,36,6,36,0.00
2013-4-11,36.7,34.5,30.9,31.4,28.0,23.2,87,77,60,29.90,29.67,21,6,21,0.09
2013-4-12,38.7,33.3,30.0,33.4,28.4,26.1,86,82,76,29.81,29.64,13,3,13,0.00
2013-4-13,36.7,33.0,27.7,30.2,27.3,21.2,86,80,74,29.92,29.80,10,2,10,0.02
2013-4-14,35.8,32.1,26.8,33.6,27.6,20.8,92,84,76,29.93,29.46,20,3,20,0.34
2013-4-15,39.0,35.8,32.9,34.2,30.5,27.5,92,81,74,29.93,29.47,28,9,28,0.00
2013-4-16,48.4,38.7,33.6,36.0,30.3,26.2,81,72,58,30.28,29.91,13,3,13,0.00
2013-4-17,41.7,37.0,32.9,32.9,30.0,26.0,87,76,70,30.30,29.89,17,4,17,0.04
2013-4-18,34.7,33.4,32.5,31.6,30.6,29.7,91,89,86,29.93,29.49,21,4,21,0.00
2013-4-19,41.0,34.3,29.1,33.8,28.8,20.2,91,80,67,29.95,29.47,17,2,17,0.04
2013-4-20,47.3,33.4,19.6,30.6,20.3,12.7,79,60,39,30.25,29.95,10,2,10,0.00
2013-4-21,47.1,40.0,32.9,42.7,34.0,20.4,89,79,57,30.27,29.95,24,5,24,0.13
2013-4-22,44.4,38.1,33.6,36.6,32.6,29.2,89,81,63,30.19,30.08,21,4,21,0.00
2013-4-23,48.4,36.9,29.3,36.8,29.0,22.3,88,74,53,30.12,30.01,11,2,11,0.02
2013-4-24,55.2,38.3,27.1,34.4,27.9,19.8,81,68,38,30.03,29.86,29,5,29,0.00
2013-4-25,53.8,42.4,32.2,35.4,30.4,27.3,83,65,42,30.17,29.94,19,4,19,0.00
2013-4-26,76.5,58.9,45.7,48.7,39.0,29.9,70,50,30,30.08,29.90,19,4,19,0.00
2013-4-27,79.3,59.0,37.2,43.8,35.6,27.1,74,46,20,30.09,29.82,17,3,17,0.00
2013-4-28,81.1,65.3,52.5,51.5,47.1,43.4,74,54,33,29.83,29.58,23,8,23,0.02
2013-4-29,78.6,62.2,46.2,55.8,43.8,37.4,74,54,27,29.79,29.49,18,2,18,0.00
2013-4-30,71.2,65.4,56.5,59.2,46.6,32.3,77,53,28,29.91,29.34,22,6,22,0.00
2013-5-1,56.5,43.7,37.4,35.8,32.7,29.2,81,66,46,30.44,29.91,12,3,12,0.12
2013-5-2,54.0,42.8,36.9,34.6,28.8,25.0,69,58,43,30.51,30.38,19,5,19,0.00
2013-5-3,40.3,36.6,33.3,33.3,28.6,23.0,84,73,58,30.38,30.13,21,6,21,0.06
2013-5-4,47.3,39.8,34.2,42.8,35.6,30.1,89,85,80,30.15,30.09,15,5,15,0.06
2013-5-5,68.9,51.4,39.4,52.0,42.2,35.2,86,72,52,30.15,30.02,12,3,12,0.00
2013-5-6,80.2,60.0,42.4,54.6,45.2,36.0,81,61,36,30.10,29.95,12,1,12,0.00
2013-5-7,81.9,64.2,47.8,53.0,45.5,40.0,79,54,30,30.03,29.88,17,2,17,0.00
2013-5-8,79.0,64.0,54.7,55.3,50.3,41.6,78,62,38,29.96,29.89,21,2,21,0.02
2013-5-9,59.5,53.7,44.4,53.1,46.6,31.3,84,77,60,30.08,29.90,23,6,23,0.02
2013-5-10,72.3,53.7,37.0,38.9,32.0,27.8,70,47,23,30.11,29.81,12,3,14,0.00
2013-5-11,58.6,49.4,38.5,37.6,28.3,20.2,60,45,32,30.13,29.82,21,5,21,0.00
2013-5-12,66.6,48.3,35.1,30.5,24.0,18.5,62,41,23,30.21,30.03,13,2,13,0.00
2013-5-13,71.4,53.9,33.3,46.5,33.2,18.5,68,47,34,30.08,29.59,90,4,90,0.02
2013-5-14,96.1,71.4,46.8,55.9,45.3,32.1,78,44,15,29.65,29.41,64,4,64,0.00
2013-5-15,84.6,69.7,54.3,48.2,45.1,38.7,63,43,27,29.87,29.63,17,3,17,0.00
2013-5-16,87.1,70.2,51.6,50.1,43.0,30.6,69,41,23,29.89,29.75,41,3,41,0.00
2013-5-17,68.2,60.4,56.8,54.3,48.6,30.3,87,69,25,29.94,29.84,16,2,16,0.06
2013-5-18,78.6,65.0,55.0,67.3,58.7,51.7,94,81,62,29.94,29.72,21,4,21,0.64
2013-5-19,81.3,68.7,63.3,68.0,63.2,60.0,93,83,63,29.74,29.51,23,3,23,0.61
2013-5-20,71.1,65.4,61.2,62.8,60.3,56.1,94,84,71,29.55,29.46,23,5,23,0.77
2013-5-21,61.3,52.8,47.1,57.8,50.5,45.0,94,92,88,29.69,29.48,13,4,13,0.41
2013-5-22,52.3,48.8,45.1,49.6,46.3,43.0,93,91,85,29.97,29.66,20,5,20,0.00
2013-5-23,66.4,53.0,43.3,44.9,39.4,33.1,88,63,37,30.29,29.96,18,4,18,0.00
2013-5-24,69.3,54.4,37.0,50.8,38.9,29.2,84,58,37,30.35,30.13,18,2,18,0.21
2013-5-25,66.0,58.1,53.4,50.9,48.9,45.6,90,73,53,30.21,30.16,22,3,22,0.00
2013-5-26,59.4,56.9,52.3,47.4,43.8,38.1,71,62,47,30.18,29.99,14,2,14,0.00
2013-5-27,61.9,58.8,56.1,54.1,50.5,47.0,86,74,65,30.01,29.80,16,2,16,0.00
2013-5-28,61.5,57.9,55.0,57.0,53.5,50.6,88,85,83,29.80,29.67,11,2,11,0.00
2013-5-29,77.4,66.7,57.0,68.7,60.8,53.3,90,82,64,29.78,29.57,15,2,15,0.04
2013-5-30,77.0,68.8,64.2,66.0,63.2,61.5,93,83,63,29.63,29.46,28,6,28,0.16
2013-5-31,79.2,68.0,61.9,61.7,57.5,50.8,94,71,46,29.50,29.44,29,7,29,0.24
2013-6-1,72.3,59.9,52.3,60.2,52.8,45.3,86,77,65,29.89,29.49,18,2,18,0.21
2013-6-2,71.2,57.9,48.9,47.5,44.2,41.3,78,62,40,30.04,29.89,12,3,12,0.00
2013-6-3,68.4,58.7,45.7,49.1,45.2,39.2,82,62,46,30.02,29.89,10,1,10,0.00
2013-6-4,63.5,58.9,54.3,54.8,49.2,43.4,90,71,57,30.04,29.92,17,2,17,0.24
2013-6-5,58.8,56.4,53.4,56.2,53.8,50.2,93,91,88,30.00,29.89,11,2,12,0.02
2013-6-6,56.3,53.4,50.2,52.8,50.3,47.6,92,90,87,30.00,29.92,11,2,11,0.00
2013-6-7,64.0,58.0,52.7,57.3,52.5,49.2,88,82,72,30.02,29.87,7,1,7,0.00
2013-6-8,70.5,63.1,53.8,57.2,53.9,49.8,88,73,58,29.88,29.82,15,1,15,0.00
2013-6-9,64.0,59.9,56.8,60.8,56.2,53.1,92,88,72,29.84,29.73,12,2,12,0.35
2013-6-10,72.0,64.3,58.8,65.4,60.3,56.5,93,87,75,29.81,29.75,8,1,9,0.00
2013-6-11,77.2,66.3,55.0,70.0,62.3,51.7,92,87,75,29.84,29.72,8,1,8,0.02
2013-6-12,72.0,64.4,59.4,68.5,60.0,54.9,93,86,71,29.89,29.69,12,2,12,0.39
2013-6-13,81.7,67.3,55.6,61.1,55.5,49.8,83,67,47,30.04,29.89,10,2,10,0.00
2013-6-14,78.6,68.7,55.8,61.8,57.3,48.8,83,68,55,30.03,29.80,20,2,20,0.00
2013-6-15,76.5,69.4,61.2,68.9,64.0,57.4,90,83,72,29.85,29.78,21,2,21,0.49
2013-6-16,86.5,69.4,54.9,61.5,55.5,50.3,90,66,33,29.86,29.77,17,2,17,0.00
2013-6-17,85.1,70.4,61.0,60.7,56.7,50.1,79,63,41,29.99,29.80,11,3,11,0.00
2013-6-18,79.9,65.7,53.4,61.8,53.1,43.4,74,64,51,30.04,29.96,10,2,10,0.00
2013-6-19,85.1,71.4,56.7,65.0,58.4,50.2,83,65,45,30.00,29.88,17,2,17,0.00
2013-6-20,88.9,78.8,69.4,69.1,64.6,58.9,75,63,48,29.93,29.80,23,4,23,0.00
2013-6-21,80.4,72.0,64.2,69.3,65.6,61.3,92,81,59,30.01,29.67,20,3,20,1.10
2013-6-22,77.5,70.4,65.8,72.7,66.9,63.0,94,89,81,29.92,29.74,19,2,19,0.22
2013-6-23,81.7,73.9,66.9,70.4,67.7,63.7,95,82,64,29.82,29.61,23,4,23,0.68
2013-6-24,82.6,72.8,62.4,71.2,65.9,58.2,89,79,63,29.84,29.74,14,2,14,0.00
2013-6-25,86.7,75.8,65.1,72.2,67.7,61.2,90,77,59,29.78,29.65,13,2,13,0.00
2013-6-26,91.8,80.1,73.2,76.1,70.7,63.7,92,74,53,29.76,29.59,12,2,12,0.00
2013-6-27,90.5,77.9,68.4,67.3,61.7,57.0,83,60,35,29.76,29.72,14,3,17,0.00
2013-6-28,81.1,71.7,66.6,64.2,60.5,56.5,85,68,54,29.76,29.70,20,4,20,0.06
2013-6-29,76.8,68.5,62.6,64.1,59.2,52.1,92,74,52,29.94,29.69,16,3,16,0.04
2013-6-30,84.9,69.7,57.6,59.7,54.6,50.5,81,61,38,30.05,29.94,13,2,13,0.00
2013-7-1,86.9,72.2,58.8,64.3,56.8,51.6,83,61,37,30.13,30.05,12,2,12,0.00
2013-7-2,87.6,71.9,59.9,58.0,54.3,51.3,75,56,34,30.11,29.99,9,2,9,0.00
2013-7-3,89.4,70.9,57.7,59.2,54.2,50.4,80,58,33,30.01,29.88,10,1,10,0.00
2013-7-4,90.9,75.5,60.1,64.8,57.3,50.8,79,56,33,29.91,29.79,42,4,42,0.00
2013-7-5,88.9,79.9,70.9,65.0,61.2,56.0,65,53,41,29.83,29.73,24,8,24,0.00
2013-7-6,86.7,80.2,74.3,70.3,64.6,61.1,65,59,52,29.82,29.73,14,5,14,0.00
2013-7-7,94.8,81.6,70.7,73.2,68.0,63.6,86,64,48,29.85,29.75,16,4,16,0.00
2013-7-8,85.3,73.3,63.1,73.3,66.4,59.8,89,80,65,29.95,29.84,10,2,10,0.00
2013-7-9,83.1,75.6,68.5,74.2,68.9,64.4,93,80,66,29.91,29.67,19,3,19,0.75
2013-7-10,83.5,71.8,62.2,64.5,58.5,56.0,82,65,43,29.99,29.87,14,2,14,0.00
2013-7-11,87.1,73.1,58.8,63.9,58.3,53.0,84,62,41,30.06,29.90,18,3,18,0.00
2013-7-12,89.8,79.1,70.0,65.9,60.8,56.7,67,54,42,29.95,29.82,26,9,26,0.00
2013-7-13,78.6,73.2,67.3,71.8,65.8,58.6,92,78,54,30.02,29.85,24,6,24,0.39
2013-7-14,86.2,76.0,70.5,69.8,65.7,61.2,81,71,53,30.12,29.97,16,4,16,0.00
2013-7-15,89.4,78.0,66.9,71.2,67.2,61.9,88,71,50,30.17,30.09,15,2,15,0.00
2013-7-16,94.1,82.9,75.0,75.0,71.6,68.5,85,70,51,30.15,30.09,17,4,17,0.00
2013-7-17,95.2,83.4,73.6,74.3,70.9,67.4,83,67,47,30.18,30.03,15,3,15,0.00
2013-7-18,95.0,85.0,76.8,75.4,71.7,69.4,79,66,47,30.04,29.68,24,7,24,0.00
2013-7-19,89.1,80.5,72.0,70.8,65.0,59.4,79,60,42,29.84,29.65,16,3,16,0.02
2013-7-20,82.2,72.5,66.4,63.2,60.0,55.5,82,66,47,29.91,29.81,13,2,13,0.00
2013-7-21,82.4,70.8,61.7,68.8,60.6,51.6,81,70,61,29.90,29.74,9,2,9,0.00
2013-7-22,88.9,76.1,68.7,73.8,64.9,56.5,86,70,46,29.80,29.61,14,4,14,0.00
2013-7-23,81.3,69.2,60.4,56.9,54.5,51.3,79,61,41,29.97,29.80,11,2,11,0.00
2013-7-24,80.4,68.0,57.9,61.1,56.1,50.0,78,67,48,30.02,29.90,9,2,9,0.00
2013-7-25,80.2,71.9,63.5,66.7,61.9,57.5,83,71,57,29.91,29.84,14,2,14,0.00
2013-7-26,71.4,65.2,58.6,62.5,55.7,48.1,81,72,61,30.03,29.84,11,3,20,0.02
2013-7-27,62.8,57.7,53.8,54.9,49.3,47.0,80,74,66,30.03,29.87,19,3,19,0.00
2013-7-28,74.8,62.6,54.7,56.6,51.2,47.0,77,67,51,30.00,29.91,11,2,11,0.00
2013-7-29,81.0,66.3,51.4,58.3,53.3,45.5,85,65,42,30.07,29.99,14,2,14,0.02
2013-7-30,69.6,66.1,62.8,64.7,61.5,57.7,90,85,74,30.04,29.98,9,1,9,0.06
2013-7-31,82.0,69.3,60.6,68.3,59.2,51.0,91,73,44,30.00,29.92,15,2,15,0.00
2013-8-1,86.4,69.4,54.9,59.7,54.9,47.7,81,62,38,29.98,29.80,10,2,14,0.00
2013-8-2,78.6,68.4,59.5,58.6,54.7,48.7,80,63,45,29.98,29.79,10,1,10,0.00
2013-8-3,80.8,65.6,53.4,57.4,51.3,46.8,81,62,41,30.13,29.98,11,1,11,0.00
2013-8-4,80.4,65.4,54.1,58.7,51.9,46.7,78,63,41,30.19,29.93,13,2,13,0.00
2013-8-5,79.9,69.1,61.2,70.3,62.4,53.6,91,80,66,29.96,29.72,17,3,17,0.02
2013-8-6,84.2,68.8,58.1,69.2,60.8,53.0,87,76,59,29.79,29.61,10,2,20,0.15
2013-8-7,79.3,66.9,60.4,59.2,56.4,51.8,90,71,43,29.97,29.73,12,2,12,0.00
2013-8-8,80.8,67.1,56.7,61.2,56.7,50.2,85,70,49,30.00,29.92,11,2,11,0.00
2013-8-9,81.1,68.2,59.7,60.6,55.6,51.5,85,66,41,30.07,29.92,11,2,11,0.00
2013-8-10,78.6,66.4,55.8,58.3,54.1,48.6,81,66,47,30.12,30.02,6,1,6,0.00
2013-8-11,83.3,71.0,61.5,65.2,60.2,54.0,82,70,51,30.03,29.93,6,1,8,0.00
2013-8-12,83.3,70.7,61.3,61.2,57.0,51.7,83,64,40,30.01,29.93,16,2,16,0.00
2013-8-13,79.9,66.1,57.0,54.8,50.8,45.4,81,60,37,30.14,30.01,11,2,11,0.00
2013-8-14,81.1,65.6,53.1,58.2,51.3,45.7,80,62,41,30.15,30.03,10,1,10,0.00
2013-8-15,84.2,67.3,52.7,62.2,54.1,45.2,82,64,42,30.08,30.01,13,2,13,0.00
2013-8-16,84.9,70.4,58.8,61.9,55.9,52.0,82,62,40,30.12,30.06,13,2,13,0.00
2013-8-17,85.6,69.5,54.9,59.8,54.6,48.4,85,61,38,30.13,30.03,18,4,18,0.00
2013-8-18,85.8,71.9,57.6,60.3,56.6,49.8,82,60,39,30.07,29.92,21,5,21,0.00
2013-8-19,89.4,77.5,68.7,69.5,64.3,58.0,74,64,51,29.96,29.82,20,6,20,0.00
2013-8-20,94.1,80.9,72.5,73.4,69.4,65.2,80,69,51,29.86,29.79,20,5,20,0.00
2013-8-21,87.3,79.1,71.2,76.2,70.6,61.4,87,76,57,29.95,29.77,11,2,11,0.00
2013-8-22,90.1,74.4,65.5,61.6,55.2,51.3,77,54,31,30.07,29.95,10,2,11,0.00
2013-8-23,91.2,73.1,57.0,66.0,57.7,48.7,76,60,36,30.11,29.96,19,3,19,0.00
2013-8-24,92.8,80.8,71.8,72.9,68.6,64.5,79,67,50,30.00,29.85,30,8,30,0.00
2013-8-25,98.4,86.6,79.5,75.8,72.8,70.1,74,64,47,29.94,29.85,24,8,24,0.00
2013-8-26,98.6,86.8,78.6,76.4,74.6,72.7,83,68,48,29.92,29.76,22,5,22,0.00
2013-8-27,92.8,84.2,77.2,79.1,74.4,68.6,83,73,61,29.87,29.72,29,2,29,0.00
2013-8-28,91.2,79.0,70.5,74.6,67.6,63.3,86,70,47,29.95,29.86,10,1,10,0.00
2013-8-29,96.3,81.7,72.3,77.3,71.2,64.0,89,72,44,29.95,29.77,18,3,18,0.02
2013-8-30,86.7,77.5,70.9,70.4,66.6,61.0,83,70,54,29.89,29.76,14,3,14,0.00
2013-8-31,91.6,74.6,63.3,70.6,63.6,57.4,87,70,45,29.85,29.64,21,2,21,0.14
2013-9-1,72.5,68.4,62.4,62.5,59.7,53.3,84,74,66,29.93,29.68,12,2,12,0.00
2013-9-2,67.8,60.9,54.0,55.4,52.3,47.3,80,74,64,30.04,29.93,9,1,9,0.00
2013-9-3,79.3,63.4,46.9,60.6,53.5,42.0,88,72,50,30.05,29.92,12,2,12,0.00
2013-9-4,88.5,70.7,57.4,68.4,59.5,51.9,87,69,49,30.11,29.94,10,2,10,0.00
2013-9-5,87.1,72.6,60.1,64.7,58.7,51.4,75,63,39,30.16,30.03,10,2,10,0.00
2013-9-6,93.6,80.1,71.2,69.7,66.9,64.5,87,66,41,30.04,29.80,23,5,23,0.00
2013-9-7,96.1,80.4,69.1,72.7,66.5,58.7,83,64,43,29.98,29.79,17,3,17,0.00
2013-9-8,74.1,68.6,64.9,61.7,57.7,52.2,74,68,62,30.00,29.82,12,3,12,0.00
2013-9-9,90.7,77.1,67.6,75.8,69.2,59.1,90,77,58,29.83,29.56,21,2,21,0.02
2013-9-10,82.2,74.1,67.8,70.2,64.6,58.1,86,73,49,29.93,29.69,17,2,17,0.00
2013-9-11,87.1,73.4,62.1,65.0,57.2,49.4,85,60,32,30.00,29.92,13,2,13,0.00
2013-9-12,75.9,64.8,55.2,56.3,48.9,42.7,78,58,40,30.18,29.99,18,2,18,0.00
2013-9-13,76.3,58.8,45.0,49.5,43.8,37.1,80,60,36,30.25,30.03,9,1,9,0.00
2013-9-14,72.7,58.4,46.4,55.5,48.6,40.0,91,71,46,30.04,29.84,17,3,17,0.33
2013-9-15,63.7,58.1,50.2,58.3,53.8,44.9,92,86,73,30.28,29.84,14,2,14,0.18
2013-9-16,69.1,53.5,40.6,46.7,41.6,36.6,88,67,39,30.37,30.18,10,1,10,0.00
2013-9-17,69.6,57.8,46.2,56.8,49.3,38.6,90,74,59,30.19,29.87,21,4,21,0.00
2013-9-18,73.2,67.0,59.7,69.7,64.2,56.8,95,91,84,29.87,29.63,17,3,17,0.08
2013-9-19,73.9,69.6,63.3,70.9,66.4,59.1,95,90,82,29.74,29.55,25,2,25,0.35
2013-9-20,68.9,59.3,52.3,58.9,53.0,47.9,88,80,59,29.87,29.72,16,3,16,0.00
2013-9-21,67.1,54.9,48.0,52.7,47.4,42.1,88,77,57,29.94,29.84,7,1,7,0.00
2013-9-22,73.0,58.8,45.0,57.5,49.9,40.4,88,73,56,29.93,29.78,17,2,17,0.00
2013-9-23,75.6,64.5,55.8,56.4,52.4,48.9,79,66,48,29.90,29.80,21,4,21,0.00
2013-9-24,79.2,64.2,54.3,58.7,52.3,47.7,83,67,45,29.93,29.85,14,2,14,0.00
2013-9-25,77.7,62.5,49.6,57.3,51.1,44.2,87,68,47,29.92,29.80,15,1,15,0.00
2013-9-26,82.8,69.2,58.8,61.6,56.5,51.3,80,65,47,29.87,29.76,24,4,24,0.00
2013-9-27,84.9,74.2,67.3,66.3,61.6,59.5,78,66,48,29.85,29.72,29,6,29,0.00
2013-9-28,75.6,62.2,47.3,62.6,54.5,42.1,89,76,60,29.87,29.56,20,5,20,0.16
2013-9-29,77.2,60.4,43.3,53.1,46.2,38.8,87,63,36,29.90,29.70,22,4,22,0.00
2013-9-30,80.4,68.9,59.9,55.2,50.6,45.8,63,53,39,29.71,29.52,24,9,24,0.00
2013-10-1,80.1,67.4,49.6,53.1,45.2,36.1,66,47,24,29.93,29.50,20,4,20,0.00
2013-10-2,76.5,57.8,42.4,51.8,42.3,34.8,85,60,28,30.00,29.78,31,2,31,0.37
2013-10-3,57.7,56.6,55.4,55.3,53.5,51.6,92,89,85,29.89,29.79,10,3,11,0.14
2013-10-4,58.8,56.5,54.7,55.0,53.5,52.1,92,90,86,29.94,29.79,19,5,19,0.14
2013-10-5,60.1,55.4,46.6,57.8,53.0,43.2,94,92,87,29.82,29.65,14,2,14,0.11
2013-10-6,53.6,49.1,45.0,51.1,46.8,42.0,93,91,89,29.78,29.63,12,1,12,0.00
2013-10-7,68.2,52.2,42.1,54.4,45.1,39.9,93,79,49,29.91,29.76,9,1,9,0.00
2013-10-8,77.7,62.8,49.1,52.3,47.1,42.7,83,59,38,29.90,29.73,23,7,23,0.00
2013-10-9,78.1,66.8,59.5,55.4,50.6,47.8,68,57,43,29.97,29.85,21,6,21,0.00
2013-10-10,79.9,64.8,53.2,58.2,50.1,45.7,76,61,42,29.97,29.81,20,3,20,0.00
2013-10-11,75.0,66.8,58.5,60.3,54.3,50.5,86,65,49,29.82,29.55,26,6,30,0.12
2013-10-12,59.7,51.2,46.4,54.4,44.3,40.9,83,77,66,30.11,29.62,22,5,22,0.02
2013-10-13,64.2,48.5,35.8,47.2,38.3,31.1,86,70,43,30.39,30.11,7,1,7,0.00
2013-10-14,53.6,47.0,39.4,44.4,39.4,33.3,85,75,62,30.36,29.93,18,2,18,0.30
2013-10-15,53.4,49.9,46.2,51.2,47.7,44.3,93,92,86,29.93,29.63,17,3,17,0.62
2013-10-16,56.3,46.7,37.0,46.6,41.5,32.0,93,83,63,29.91,29.79,14,2,14,0.00
2013-10-17,55.2,46.2,37.0,46.0,41.0,32.3,91,82,69,29.82,29.73,11,2,11,0.63
2013-10-18,54.0,44.5,37.9,44.3,38.3,34.1,93,80,60,29.93,29.80,12,2,12,0.00
2013-10-19,48.6,41.0,34.3,44.0,36.3,29.6,89,83,73,29.79,29.66,10,2,10,0.00
2013-10-20,41.2,36.5,32.2,39.0,33.6,28.2,92,89,83,29.84,29.60,14,1,14,0.10
2013-10-21,40.8,35.3,31.3,35.2,27.5,24.1,90,74,61,29.93,29.83,14,3,14,0.00
2013-10-22,41.2,35.3,27.7,36.7,29.8,22.9,88,80,73,29.98,29.90,8,1,8,0.00
2013-10-23,40.3,36.0,34.3,37.1,29.2,24.1,89,77,64,30.05,29.95,15,2,15,0.00
2013-10-24,43.3,38.3,34.0,33.7,29.3,24.8,79,70,61,30.25,30.05,14,2,14,0.00
2013-10-25,56.8,44.9,30.9,43.6,35.3,25.8,83,70,56,30.27,29.71,39,5,39,0.00
2013-10-26,51.1,44.0,37.6,41.3,31.7,27.2,72,62,54,30.05,29.73,15,3,15,0.00
2013-10-27,62.8,44.5,33.1,40.1,31.5,25.9,78,62,41,30.10,29.76,16,4,16,0.00
2013-10-28,48.7,38.6,31.8,29.6,25.1,20.3,73,60,38,30.41,30.10,15,4,15,0.00
2013-10-29,39.4,36.6,32.4,33.8,28.7,23.8,83,73,68,30.37,30.04,14,3,14,0.04
2013-10-30,48.6,44.3,38.5,46.2,41.3,33.8,92,89,83,30.04,29.61,8,1,8,0.04
2013-10-31,48.4,43.5,40.6,46.2,41.3,37.9,92,91,90,29.62,29.35,11,2,11,0.02
2013-11-1,54.9,44.0,39.0,43.6,38.1,32.3,91,80,62,29.80,29.36,11,2,11,0.00
2013-11-2,55.8,41.5,32.7,39.2,32.4,25.3,83,71,49,30.04,29.80,11,1,11,0.00
2013-11-3,56.8,45.2,32.7,37.9,33.1,25.6,82,64,44,30.07,29.82,26,6,26,0.00
2013-11-4,49.1,44.6,34.3,43.5,36.8,29.6,87,75,59,30.09,29.77,21,5,21,0.08
2013-11-5,43.9,35.5,28.0,37.5,30.3,23.8,90,82,68,30.20,29.98,7,1,7,0.02
2013-11-6,42.6,34.7,30.0,34.7,30.1,24.9,91,83,71,30.10,29.98,10,1,10,0.23
2013-11-7,41.7,30.3,21.7,35.0,25.5,17.3,87,82,75,30.20,30.10,10,2,10,0.00
2013-11-8,43.9,34.3,21.9,37.7,28.0,18.3,91,78,62,30.14,29.53,17,4,17,0.00
2013-11-9,43.5,41.1,38.3,38.2,34.1,28.9,86,77,67,30.16,29.56,20,6,20,0.00
2013-11-10,45.9,38.5,32.4,33.9,30.3,25.0,77,72,61,30.27,30.03,15,3,15,0.00
2013-11-11,38.1,27.5,18.0,31.5,16.1,8.6,77,62,47,30.68,30.07,19,4,19,0.00
2013-11-12,34.9,22.9,13.8,16.8,11.4,6.5,74,62,44,30.75,30.37,14,4,14,0.00
2013-11-13,54.3,38.1,23.0,35.5,25.6,13.6,70,61,47,30.37,29.82,23,7,23,0.00
2013-11-14,58.3,43.0,34.3,42.2,33.5,27.5,79,69,54,29.82,29.70,11,2,11,0.00
2013-11-15,58.8,43.2,27.7,42.2,33.6,22.3,84,70,49,29.80,29.58,18,4,18,0.00
2013-11-16,48.0,45.1,41.2,45.9,41.0,35.0,92,86,68,29.59,29.20,11,4,17,0.04
2013-11-17,45.0,40.7,33.1,42.8,36.4,26.3,92,85,76,29.78,29.25,20,5,20,0.00
2013-11-18,43.0,31.9,21.7,28.2,22.4,14.4,76,68,53,30.22,29.77,18,4,18,0.00
2013-11-19,48.0,35.4,19.9,31.7,25.1,13.5,82,67,49,30.24,29.83,27,7,27,0.00
2013-11-20,46.4,43.5,38.8,33.7,30.8,27.4,81,62,50,29.99,29.83,26,8,26,0.00
2013-11-21,39.0,32.8,25.9,34.7,26.9,16.9,85,79,69,30.47,29.98,18,3,18,0.00
2013-11-22,39.0,24.9,14.9,16.9,12.3,3.8,75,60,36,30.60,30.39,17,4,17,0.00
2013-11-23,27.1,15.2,9.0,11.4,3.2,-1.7,73,60,42,30.78,30.60,13,2,13,0.00
2013-11-24,34.9,21.7,7.2,17.6,9.5,-2.6,72,60,46,30.66,29.90,30,9,30,0.00
2013-11-25,39.4,34.2,29.8,29.4,24.1,17.6,77,66,60,30.04,29.84,27,6,27,0.00
2013-11-26,30.7,22.9,14.9,20.3,9.6,4.3,66,57,47,30.33,30.04,19,4,19,0.00
2013-11-27,25.2,18.3,7.0,11.4,7.4,-0.9,73,62,54,30.36,30.01,13,3,13,0.00
2013-11-28,31.8,23.5,11.1,17.4,11.5,1.5,65,60,52,30.46,30.02,10,2,10,0.00
2013-11-29,33.4,23.1,8.4,21.0,13.4,-0.2,79,66,56,30.48,30.07,20,4,20,0.00
2013-11-30,44.2,32.2,22.1,31.2,23.1,15.2,79,69,59,30.13,29.97,12,1,12,0.00
2013-12-1,37.4,27.4,17.8,27.5,19.6,11.1,79,72,66,30.16,29.87,8,1,8,0.00
2013-12-2,38.8,33.5,26.8,33.0,29.1,20.5,91,84,75,29.88,29.53,12,3,12,0.04
2013-12-3,36.0,35.0,32.5,33.8,32.8,30.2,92,92,91,29.75,29.54,14,3,14,0.00
2013-12-4,32.5,28.8,15.6,30.2,26.2,11.6,91,90,84,29.75,29.42,24,4,24,0.00
2013-12-5,15.6,8.5,0.3,11.6,2.1,-5.8,84,75,65,30.29,29.63,30,5,30,0.00
2013-12-6,12.7,0.7,-6.0,3.8,-6.4,-13.1,78,72,62,30.58,30.28,11,3,11,0.00
2013-12-7,7.5,-4.5,-13.2,-2.1,-12.2,-19.7,75,69,61,30.65,30.50,13,2,13,0.00
2013-12-8,18.7,7.5,-6.9,15.2,2.2,-14.2,87,79,70,30.52,29.98,10,1,10,0.00
2013-12-9,11.1,3.1,-2.6,7.4,-2.8,-10.3,85,76,64,30.08,29.81,18,4,18,0.00
2013-12-10,13.8,6.7,1.2,4.2,-0.1,-4.2,80,74,63,30.25,29.73,13,3,13,0.00
2013-12-11,7.5,-0.7,-6.9,-2.1,-8.9,-13.9,72,68,59,30.53,30.25,12,4,12,0.00
2013-12-12,20.3,11.5,0.3,11.0,4.1,-6.4,76,72,66,30.26,30.07,14,1,14,0.00
2013-12-13,17.8,14.4,11.3,11.1,7.6,5.1,77,74,71,30.27,30.10,16,5,16,0.00
2013-12-14,17.4,11.3,1.9,10.5,5.0,-5.0,78,76,72,30.26,30.05,32,3,32,0.00
2013-12-15,13.8,4.1,0.9,2.1,-4.7,-8.0,74,67,56,30.13,30.06,10,2,10,0.00
2013-12-16,22.8,10.0,1.9,18.7,3.4,-7.7,84,74,64,30.08,29.83,12,3,12,0.00
2013-12-17,32.2,23.9,3.9,28.2,16.5,-3.7,85,74,59,30.06,29.81,24,5,24,0.00
2013-12-18,37.2,23.4,3.9,27.3,16.1,-3.7,83,74,65,30.04,29.60,18,3,18,0.02
2013-12-19,25.5,18.9,16.2,19.6,12.3,9.1,79,75,70,30.07,29.76,18,5,18,0.00
2013-12-20,21.0,16.8,12.6,14.6,11.1,7.2,80,78,75,30.01,29.80,10,2,10,0.00
2013-12-21,29.3,20.8,16.9,25.9,15.7,11.8,88,81,75,29.97,29.82,13,2,13,0.00
2013-12-22,26.1,17.8,8.4,21.6,13.4,4.6,87,83,77,30.19,29.91,11,2,11,0.00
2013-12-23,8.4,2.0,-7.1,4.6,-3.6,-13.6,84,77,73,30.46,30.19,11,3,11,0.00
2013-12-24,10.9,-0.3,-15.5,5.8,-6.8,-21.8,81,74,65,30.45,30.07,21,4,21,0.00
2013-12-25,27.7,17.1,10.8,22.4,11.7,5.4,85,79,71,30.09,29.99,15,2,15,0.00
2013-12-26,26.1,19.8,12.7,20.7,14.6,7.7,82,80,77,30.12,30.02,6,1,6,0.00
2013-12-27,42.6,28.0,11.1,33.8,22.7,6.1,89,81,70,30.12,29.84,20,3,20,0.08
2013-12-28,47.5,32.4,20.1,40.8,27.6,14.1,91,83,69,29.98,29.60,17,2,17,0.00
2013-12-29,19.9,3.0,-13.2,14.1,-5.5,-21.9,78,67,57,30.29,29.98,19,3,19,0.00
2013-12-30,4.3,-4.0,-14.6,-2.6,-11.0,-22.9,75,71,65,30.26,30.14,9,1,9,0.00
2013-12-31,2.8,-5.2,-10.8,-4.7,-11.7,-18.0,76,73,69,30.37,30.16,6,1,6,0.00
2014-1-1,4.5,-1.2,-7.4,-3.7,-8.6,-14.1,72,70,68,30.45,30.37,9,3,9,0.00
2014-1-2,12.0,-2.4,-13.2,-1.2,-11.9,-22.7,71,64,52,30.49,30.32,8,1,8,0.00